Location: Auckland
(36.8670°S, 174.7670°E)
Time: 12:22:50
(UTC+12:00)

A-11 Canister half - Pass Details

Date: 28 July 2019
Orbit: 1526 x 1683 km, 47.3° (Epoch: 23 August)

Event Time Altitude Azimuth Distance (km) Brightness Sun altitude
Rises 13:10:26 0° 238° (WSW) 4,778 11.4 33.1°
Reaches altitude 10° 13:13:29 10° 238° (WSW) 3,811 11.0 33.0°
Maximum altitude 13:23:15 85° 324° (NW) 1,641 9.8 32.5°
Drops below altitude 10° 13:33:18 10° 51° (NE) 3,910 11.5 31.9°
Sets 13:36:28 0° 52° (NE) 4,907 11.9 31.7°
